THORAD AGENA D DEB, 4177

Orbit data source: Space-Track

THORAD AGENA D DEB, 4177 is space debris in LEO originally from a launch on Tue, 30 Sep 1969 UTC launched from the Air Force Western Test Range (AFWTR). Debris objects in space refer to the collection of defunct objects orbiting the Earth. Examples of debris include non-operational satellites, rocket bodies, and fragments generated from explosions, collisions, or faulty payload assembly.

Loading next visibility...
Identifier
4177, 1969-082AV
Orbit
LEO
Country
Flag of USUS
Related business
Manufacturer
Unknown
Mission
Spacecraft
Bus & Motor
Unknown
Mass
Unknown
Launch date (UTC)
1969-09-30 (57 years ago)
Launch vehicle
Unknown
Launch site
Air Force Western Test Range (AFWTR)
Object type
Payload
Rocket body
Debris
Shape & HBR
Unknown shape, 0.1 m
Radar Cross Section
Medium (>0.1 m² and <1 m²)

Expand to show TLE details & history
Last TLE update: 3 days ago

TLE from 3 days ago
0 THORAD AGENA D DEB
1  4177U 69082AV  26171.44676034  .00000263  00000-0  23224-3 0  9992
2  4177  70.0712 212.1248 0114290 352.9148   7.0334 13.92432574856643
Epoch: 2026-06-20T10:43Z
TLE epoch observation values (Epoch: 2026-06-20T10:43:20.093Z)
Latitude
-0.00005°
Longitude
142.6298°
Altitude
839.651 km
Speed
7.475 km/s
True Right ascension
14h 08m 29s
True Declination
0° 00' 00"
Sunlit
Object was in full shadow at epoch
Visualization orbit readout
Latitude
Unknown
Longitude
Unknown
Altitude
Unknown
Speed
Unknown
Apparent Right ascension
Unknown
Apparent Declination
Unknown
Sunlit
N/A
Visualization observer readout
Local Sidereal Time
15:40:23
Azimuth
Unknown
Elevation
Unknown
Doppler factor
Unknown
Orbital elements
Apogee altitude
1,001.547 km
Perigee altitude
834.768 km
Semi-major axis
7,296.294 km
Eccentricity
0.01143
Inclination
70.0712°
RAAN
212.1248°
Arg. of periapsis
352.9148°
True anomaly
7.19607°
Mean anomaly
7.0334°
Eccentric anomaly
7.1145°
Mean motion
3.48249 °/min
Orbital period
103.37 mins
BSTAR
0.00023224

Documentation

Showing up to 5 results
|